Flag for U.S.A. Weather past 2 weeks in Garden Grove, California, U.S.A.

Now
62 °F

Clear.


Feels Like: 62 °F
Forecast: 60 / 78 °F
Wind: No wind

Location: Fullerton Municipal Airport

Current Time: May 28, 2015 at 12:06:58 AM

Latest Report: May 27, 2015 at 10:53 PM


Visibility: 10 mi

Pressure: 29.97 "Hg

Humidity: 73%

Dew point: 53 °F

Location of Garden GroveLocation

Historic Weather in Garden Grove — Graph

°F

Garden Grove temperature yesterday

Maximum temperature yesterday: 75 °F (at 2:53 PM)
Minimum temperature yesterday: 62 °F (at 10:53 PM)
Average temperature yesterday: 66 °F

Past Weeks' High & Low Weather Summary

 TemperatureHumidityPressure
High75 °F (May 26, 2:53 PM)84% (May 14, 1:53 PM)30.08 "Hg (May 14, 1:53 PM)
Low55 °F (May 15, 10:53 AM)39% (May 21, 1:53 PM)29.82 "Hg (May 15, 4:53 PM)
Average64 °F64%29.97 "Hg
* Reported May 12 10:53 PM — May 27 10:53 PM, Garden Grove, Weather by CustomWeather, © 2015

Note: Actual official high and low records may vary slightly from our data, if they occured in-between our weather recording intervals... More about our weather records

Advertising

Garden Grove weather history for previous 24 hours

 ConditionsComfort  
Time TempWeatherWind HumidityBarometerVisibility
10:53 PM
Wed, May 27
62 °FClear.No wind73%29.97 "Hg10 mi
9:53 PM63 °FClear.No wind70%29.96 "Hg10 mi
8:53 PM64 °FSunny.No wind68%29.96 "Hg10 mi
7:53 PM66 °FSunny.6 mph63%29.95 "Hg10 mi
6:53 PM68 °FSunny.6 mph59%29.93 "Hg10 mi
5:53 PM70 °FSunny.8 mph55%29.93 "Hg10 mi
4:53 PM72 °FSunny.9 mph49%29.93 "Hg10 mi
3:53 PM73 °FSunny.7 mph48%29.94 "Hg10 mi
2:53 PM75 °FSunny.8 mph45%29.94 "Hg10 mi
1:53 PM74 °FSunny.6 mph48%29.96 "Hg10 mi
12:53 PM72 °FPassing clouds.3 mph49%29.98 "Hg7 mi
11:53 AM69 °FOvercast.No wind55%29.98 "Hg7 mi
10:53 AM66 °FOvercast.3 mph61%29.99 "Hg7 mi
9:53 AM65 °FOvercast.5 mph66%29.99 "Hg8 mi
8:53 AM64 °FOvercast.5 mph68%29.99 "Hg9 mi
7:53 AM64 °FOvercast.No wind68%29.98 "Hg8 mi
6:53 AM63 °FOvercast.No wind68%29.97 "Hg10 mi
5:53 AM63 °FOvercast.No wind70%29.96 "Hg10 mi
4:53 AM63 °FOvercast.No wind70%29.96 "Hg10 mi
3:53 AM63 °FOvercast.3 mph70%29.97 "Hg10 mi
2:53 AM63 °FOvercast.3 mph70%29.97 "Hg10 mi
1:53 AM63 °FOvercast.No wind70%29.97 "Hg10 mi
12:53 AM63 °FOvercast.5 mph70%29.98 "Hg10 mi
Weather by CustomWeather, © 2015

See weather overviewHow to use our weather pages